Weather observations for the past three days for
Tappahannock-Essex County Airport
Imperial (Metric)
Date Time (edt) Wind (mph) Vis. (mi.) Weather Sky Cond. Temperature (ºF) Relative Humidity Wind Chill (°F) Heat Index (°F) Pressure Precipitation (in)
Air Dwpt 6 hour altimeter (in) sea level (mb) 1 hr 3 hr 6 hr
Max. Min.
01 20:35 Calm 0.00 Fair CLR 80.1 73.8 81% 85 29.97 0.0
01 20:15 Calm 0.00 Fair CLR 80.4 73.8 80% 85 29.97 0.0
01 19:55 Calm 0.00 Fair CLR 81.7 74.1 97.7 81.7 78% 88 29.97 0.0
01 19:35 Calm 0.00 Fair CLR 84.2 72.9 69% 91 29.97 0.0
01 19:15 Calm 0.00 Fair CLR 87.4 72.7 62% 95 29.97 0.0
01 18:55 Calm 0.00 Fair CLR 91 70.9 52% 97 29.97 0.0
01 18:35 Calm 0.00 Fair CLR 92.8 70.5 48% 99 29.98 0.0
01 18:15 Calm 0.00 Fair CLR 93.9 70 46% 100 29.99 0.0
01 17:55 Calm 0.00 Fair CLR 94.1 68.7 44% 99 29.99 0.0
01 17:35 Calm 0.00 Partly Cloudy SCT002 94.6 68.2 42% 99 29.99 0.0
01 17:15 Calm 0.00 Partly Cloudy SCT002 95.2 68.4 42% 100 29.99 0.0
01 16:55 Calm 0.00 Partly Cloudy SCT002 SCT065 95.9 66.9 39% 100 29.99 0.0
01 16:35 Calm 0.00 Partly Cloudy SCT065 SCT075 96.4 67.5 39% 101 29.99 0.0
01 16:15 Calm 0.00 Partly Cloudy SCT065 SCT075 96.1 68.7 41% 102 30 0.0
01 15:55 Calm 0.00 Partly Cloudy SCT002 SCT005 95 68 41% 100 30 0.0
01 15:35 Calm 0.00 Partly Cloudy SCT002 95.9 67.5 39% 100 30.01 0.0
01 15:15 Calm 0.00 Partly Cloudy SCT002 95.5 67.6 40% 100 30.01 0.0
01 14:55 Calm 0.00 Partly Cloudy SCT060 94.6 68.5 43% 100 30.01 0.0
01 14:35 Calm 0.00 Partly Cloudy SCT060 93.2 69.1 45% 98 30.02 0.0
01 14:15 Calm 0.00 Partly Cloudy SCT060 94.6 68.4 42% 100 30.02 0.0
01 13:55 Calm 0.00 Fair CLR 94.5 68 95.7 73.6 42% 99 30.02 0.0
01 13:35 Calm 0.00 Fair CLR 93.9 66.6 41% 97 30.02 0.0
01 13:15 Calm 0.00 Fair CLR 94.8 68.4 42% 100 30.02 0.0
01 12:55 Calm 0.00 Fair CLR 93.6 68 43% 98 30.03 0.0
01 12:35 Calm 0.00 Fair CLR 93.4 68.9 45% 99 30.04 0.0
01 12:15 Calm 0.00 Fair CLR 91.9 71.6 52% 99 30.05 0.0
01 11:55 Calm 0.00 Fair CLR 91.9 71.2 51% 99 30.05 0.0
01 11:35 Calm 0.00 Fair CLR 90.3 71.6 54% 97 30.05 0.0
01 11:15 Calm 0.00 Fair CLR 90.5 72.7 56% 99 30.06 0.0
01 10:55 Calm 0.00 Fair CLR 88.5 72.5 59% 96 30.06 0.0
01 10:35 Calm 0.00 Fair CLR 87.4 72.1 61% 94 30.06 0.0
01 10:15 Calm 0.00 Fair CLR 87.1 73 63% 95 30.07 0.0
01 09:55 Calm 0.00 Fair CLR 85.6 73.6 67% 93 30.06 0.0
01 09:35 N 9 0.00 Fair CLR 83.1 73.2 72% 89 30.06 0.0
01 09:15 Calm 0.00 Fair CLR 81.1 73.2 77% 86 30.07 0.0
01 08:55 Calm 0.00 Fair CLR 79.5 73.2 81% 83 30.07 0.0
01 08:35 Calm 0.00 Fair CLR 78.3 73.2 85% 81 30.07 0.0
01 08:15 Calm 0.00 NULL NULL 76.1 73.8 93% 76 30.07 0.0
01 07:55 Calm 0.00 NULL NULL 73.6 73.6 73.6 68.4 100% 30.07 0.0
01 07:35 Calm 0.00 NULL NULL 71.8 71.8 100% 30.06 0.0
01 07:15 Calm 0.00 NULL NULL 69.6 69.6 100% 30.06 0.0
01 06:55 Calm 0.00 NULL NULL 69.1 69.1 100% 30.05 0.0
01 06:35 Calm 0.00 NULL NULL 69.4 69.4 100% 30.05 0.0
01 06:15 Calm 0.00 NULL NULL 69.3 69.3 100% 30.05 0.0
01 05:55 Calm 0.00 NULL NULL 69.3 69.3 100% 30.05 0.0
01 05:35 Calm 0.00 NULL NULL 69.1 69.1 100% 30.05 0.0
01 05:15 Calm 0.00 NULL NULL 69.3 69.3 100% 30.05 0.0
01 04:55 Calm 0.00 NULL NULL 69.6 69.6 100% 30.05 0.0
01 04:35 Calm 0.00 NULL NULL 69.4 69.4 100% 30.05 0.0
01 04:15 Calm 0.00 NULL NULL 70.9 70.9 100% 30.05 0.0
01 03:55 Calm 0.00 NULL NULL 69.8 69.8 100% 30.05 0.0
01 03:35 Calm 0.00 NULL NULL 68.9 68.9 100% 30.05 0.0
01 03:15 Calm 0.00 NULL NULL 69.8 69.8 100% 30.06 0.0
01 02:55 Calm 0.00 NULL NULL 70 70 100% 30.06 0.0
01 02:35 Calm 0.00 NULL NULL 71.2 71.2 100% 30.07 0.0
01 02:15 Calm 0.00 NULL NULL 71.1 71.1 100% 30.07 0.0
01 01:55 Calm 0.00 NULL NULL 71.2 71.2 80.8 69.8 100% 30.07 0.0
01 01:35 Calm 0.00 NULL NULL 70.5 70.5 100% 30.08 0.0
01 01:15 Calm 0.00 NULL NULL 70 70 100% 30.08 0.0
01 00:55 Calm 0.00 NULL NULL 70.5 70.5 100% 30.09 0.0
01 00:35 Calm 0.00 NULL NULL 70.9 70.9 100% 30.09 0.0
01 00:15 Calm 0.00 Mostly Cloudy BKN100 71.2 71.2 100% 30.09 0.0
31 23:55 Calm 0.00 Mostly Cloudy BKN110 71.4 71.4 100% 30.09 0.0
31 23:35 Calm 0.00 NULL NULL 72 72 100% 30.08 0.0
31 23:15 Calm 0.00 NULL NULL 72.9 72.5 99% 30.08 0.0
31 22:55 Calm 0.00 Fair CLR 74.8 70.2 85% 30.08 0.0
31 22:35 Calm 0.00 NULL NULL 75.2 71.1 87% 75 30.08 0.0
31 22:15 Calm 0.00 NULL NULL 75.4 72 89% 75 30.08 0.0
31 21:55 Calm 0.00 NULL NULL 76.1 71.8 87% 77 30.09 0.0
31 21:35 Calm 0.00 Fair CLR 76.5 71.6 85% 77 30.09 0.0
31 21:15 Calm 0.00 Fair CLR 77.2 71.2 82% 79 30.09 0.0
31 20:55 Calm 0.00 Fair CLR 78.3 71.1 79% 81 30.09 0.0
31 20:35 Calm 0.00 Fair CLR 79 70.5 75% 82 30.09 0.0
31 20:15 Calm 0.00 Fair CLR 80.2 70.5 72% 84 30.09 0.0
31 19:55 Calm 0.00 Fair CLR 81 71.8 91.6 81 74% 85 30.09 0.0
31 19:35 Calm 0.00 Fair CLR 82.6 72 70% 88 30.08 0.0
31 19:15 Calm 0.00 Fair CLR 83.8 72 68% 89 30.08 0.0
31 18:55 Calm 0.00 Fair CLR 85.6 72.3 65% 92 30.07 0.0
31 18:35 Calm 0.00 Fair CLR 86 72.9 65% 93 30.07 0.0
31 18:15 Calm 0.00 Fair CLR 86.2 72.5 64% 93 30.07 0.0
31 17:55 Calm 0.00 Fair CLR 88 72.1 59% 95 30.07 0.0
31 17:35 Calm 0.00 Fair CLR 89.6 72 56% 97 30.07 0.0
31 17:15 Calm 0.00 Fair CLR 90.5 71.8 54% 98 30.07 0.0
31 16:55 Calm 0.00 Partly Cloudy SCT048 90.3 70.3 52% 96 30.06 0.0
31 16:35 Calm 0.00 Mostly Cloudy BKN046 90.3 70.2 52% 96 30.06 0.0
31 16:15 Calm 0.00 Fair CLR 90.7 69.1 49% 95 30.06 0.0
31 15:55 Calm 0.00 Partly Cloudy SCT047 SCT060 SCT070 90.1 71.4 54% 97 30.07 0.0
31 15:35 Calm 0.00 Mostly Cloudy BKN047 BKN055 BKN065 90.1 70.3 52% 96 30.07 0.0
31 15:15 Calm 0.00 Partly Cloudy SCT065 89.8 70.5 53% 96 30.08 0.0
31 14:55 Calm 0.00 Fair CLR 90.5 70.3 52% 96 30.08 0.0
31 14:35 Calm 0.00 Partly Cloudy SCT044 90 71.1 54% 96 30.09 0.0
31 14:15 Calm 0.00 Fair CLR 90.1 69.8 51% 95 30.09 0.0
31 13:55 Calm 0.00 Partly Cloudy SCT038 89.6 71.2 90.9 74.7 55% 96 30.1 0.0
31 13:35 Calm 0.00 Partly Cloudy SCT040 89.6 71.1 54% 96 30.1 0.0
31 13:15 Calm 0.00 Fair CLR 88.9 71.6 57% 95 30.1 0.0
31 12:55 Calm 0.00 Fair CLR 88.3 70.7 56% 94 30.11 0.0
31 12:35 Calm 0.00 Fair CLR 87.1 71.8 60% 93 30.11 0.0
31 12:15 Calm 0.00 Fair CLR 87.3 71.8 60% 94 30.11 0.0
31 11:55 Calm 0.00 Fair CLR 86.2 72.1 63% 93 30.11 0.0
31 11:35 Calm 0.00 Fair CLR 84.6 72.1 66% 90 30.11 0.0
31 11:15 Calm 0.00 Fair CLR 84.9 72.7 67% 91 30.11 0.0
31 10:55 Calm 0.00 Fair CLR 83.5 72 68% 89 30.11 0.0
31 10:35 Calm 0.00 Fair CLR 83.5 72.3 69% 89 30.12 0.0
31 10:15 Calm 0.00 Fair CLR 82.4 72.5 72% 88 30.12 0.0
31 09:55 Calm 0.00 Fair CLR 80.8 71.8 74% 85 30.12 0.0
31 09:35 Calm 0.00 Fair CLR 80.6 71.8 75% 85 30.12 0.0
31 09:15 Calm 0.00 Fair CLR 79.2 71.6 78% 82 30.12 0.0
31 08:55 Calm 0.00 Fair CLR 78.8 71.6 79% 82 30.11 0.0
31 08:35 Calm 0.00 Fair CLR 77.7 71.4 81% 80 30.11 0.0
31 08:15 Calm 0.00 NULL NULL 76.1 72 87% 77 30.11 0.0
31 07:55 N 3 0.00 NULL NULL 74.5 72.7 75.2 71.1 94% 30.11 0.0
31 07:35 Calm 0.00 NULL NULL 73.4 72.9 98% 30.1 0.0
31 07:15 Calm 0.00 NULL NULL 71.6 71.6 100% 30.1 0.0
31 06:55 Calm 0.00 NULL NULL 71.1 71.1 100% 30.09 0.0
31 06:35 Calm 0.00 NULL NULL 71.6 71.6 100% 30.09 0.0
31 06:15 Calm 0.00 Mostly Cloudy BKN110 72 72 100% 30.09 0.0
31 05:55 Calm 0.00 Overcast OVC110 73 73 100% 30.08 0.0
31 05:35 Calm 0.00 NULL NULL 73.4 73.4 100% 30.09 0.0
31 05:15 Calm 0.00 NULL NULL 73.6 73.4 99% 30.08 0.0
31 04:55 Calm 0.00 Overcast OVC085 73.9 73.4 98% 30.09 0.0
31 04:35 Calm 0.00 NULL NULL 74.3 73.4 97% 30.09 0.0
31 04:15 Calm 0.00 Overcast BKN080 OVC090 74.3 73.6 98% 30.09 0.0
31 03:55 Calm 0.00 Overcast OVC080 74.3 73.8 98% 30.09 0.0
31 03:35 Calm 0.00 Overcast OVC090 74.3 73.8 98% 30.09 0.0
31 03:15 Calm 0.00 Overcast OVC100 74.3 73.6 98% 30.09 0.0
31 02:55 Calm 0.00 Overcast OVC100 74.5 73.9 98% 30.09 0.0
31 02:35 Calm 0.00 Overcast OVC090 75.2 73.9 96% 73 30.1 0.0
31 02:15 Calm 0.00 Overcast OVC090 74.8 74.8 100% 30.09 0.0
31 01:55 Calm 0.00 Overcast OVC090 74.5 74.5 79.3 73.6 100% 30.1 0.0
31 01:35 Calm 0.00 Mostly Cloudy BKN090 74.3 74.3 100% 30.1 0.0
31 01:15 Calm 0.00 NULL NULL 73.9 73.9 100% 30.1 0.0
31 00:55 Calm 0.00 NULL NULL 74.3 74.3 100% 30.1 0.0
31 00:35 Calm 0.00 NULL NULL 73.8 73.8 100% 30.1 0.0
31 00:15 Calm 0.00 NULL NULL 73.8 73.8 100% 30.11 0.0
30 23:55 Calm 0.00 NULL NULL 74.1 74.1 100% 30.11 0.0
30 23:35 Calm 0.00 NULL NULL 74.3 74.3 100% 30.11 0.0
30 23:15 Calm 0.00 NULL NULL 75.2 75.2 100% 73 30.12 0.0
30 22:55 Calm 0.00 NULL NULL 75.6 75 98% 74 30.12 0.0
30 22:35 Calm 0.00 NULL NULL 76.1 74.5 95% 76 30.12 0.0
30 22:15 Calm 0.00 NULL NULL 76.3 74.3 94% 76 30.12 0.0
30 21:55 Calm 0.00 NULL NULL 76.5 73.9 92% 77 30.13 0.0
30 21:35 Calm 0.00 NULL NULL 76.8 73.9 91% 78 30.13 0.0
30 21:15 Calm 0.00 NULL NULL 77.2 73.2 88% 79 30.13 0.0
30 20:55 Calm 0.00 Fair CLR 78.6 72.9 83% 82 30.12 0.0
30 20:35 Calm 0.00 Fair CLR 79.2 72.1 79% 82 30.12 0.0
30 20:15 Calm 0.00 Fair CLR 78.8 70.3 75% 81 30.11 0.0
30 19:55 Calm 0.00 Partly Cloudy SCT110 78.1 70.3 90.7 77.9 77% 80 30.11 0.0
30 19:35 Calm 0.00 Fair CLR 80.6 69.4 69% 84 30.11 0.0
30 19:15 Calm 0.00 Fair CLR 84.4 68.2 58% 88 30.11 0.0
30 18:55 Calm 0.00 Fair CLR 86.2 68.5 56% 90 30.1 0.0
30 18:35 Calm 0.00 Fair CLR 87.1 68 53% 91 30.1 0.0
30 18:15 Calm 0.00 Fair CLR 88 67.6 51% 91 30.1 0.0
30 17:55 Calm 0.00 Fair CLR 88.7 67.6 50% 92 30.1 0.0
30 17:35 Calm 0.00 Fair CLR 88.9 67.3 49% 92 30.1 0.0
30 17:15 Calm 0.00 Fair CLR 89.4 67.1 48% 93 30.09 0.0
30 16:55 N 6 0.00 Fair CLR 89.8 67.5 48% 93 30.1 0.0
30 16:35 Calm 0.00 Partly Cloudy SCT048 89.4 67.8 49% 93 30.1 0.0
30 16:15 Calm 0.00 Partly Cloudy SCT048 SCT075 90.5 68.4 48% 95 30.1 0.0
30 15:55 Calm 0.00 Partly Cloudy SCT048 SCT075 90.1 68.4 49% 94 30.11 0.0
30 15:35 Calm 0.00 Mostly Cloudy BKN046 BKN050 BKN075 89.1 68.2 50% 93 30.12 0.0
30 15:15 Calm 0.00 Mostly Cloudy BKN046 89.6 68.2 49% 94 30.14 0.0
30 14:55 Calm 0.00 Partly Cloudy SCT044 SCT050 88 68.5 53% 92 30.14 0.0
30 14:35 Calm 0.00 Partly Cloudy SCT044 89.2 69.1 51% 94 30.15 0.0
30 14:15 Calm 0.00 Partly Cloudy SCT041 88.5 68.9 52% 93 30.16 0.0
30 13:55 Calm 0.00 Partly Cloudy SCT039 87.6 69.6 88.7 68.9 55% 92 30.17 0.0
30 13:35 Calm 0.00 Mostly Cloudy BKN037 87.3 69.1 55% 92 30.17 0.0
30 13:15 Calm 0.00 Partly Cloudy SCT035 87.4 69.6 56% 92 30.18 0.0
30 12:55 N 5 0.00 Partly Cloudy SCT031 86.5 69.6 57% 91 30.18 0.0
30 12:35 Calm 0.00 Partly Cloudy SCT031 86 69.6 58% 90 30.19 0.0
30 12:15 Calm 0.00 Mostly Cloudy BKN029 84 69.8 62% 88 30.2 0.0
30 11:55 Calm 0.00 Mostly Cloudy BKN029 85.1 69.8 60% 90 30.2 0.0
30 11:35 Calm 0.00 Mostly Cloudy BKN027 BKN031 81.9 69.8 67% 86 30.2 0.0
30 11:15 Calm 0.00 Mostly Cloudy BKN023 82.8 70.3 66% 87 30.2 0.0
30 10:55 Calm 0.00 Mostly Cloudy BKN023 81.5 70.5 69% 85 30.2 0.0
30 10:35 Calm 0.00 Mostly Cloudy SCT019 BKN023 81 70.9 72% 85 30.21 0.0
30 10:15 Calm 0.00 Mostly Cloudy BKN015 BKN021 79.9 71.4 75% 83 30.21 0.0
30 09:55 Calm 0.00 Partly Cloudy SCT011 SCT021 78.6 72.3 81% 82 30.22 0.0
30 09:35 Calm 0.00 Fair CLR 77.5 72.7 85% 79 30.23 0.0
30 09:15 Calm 0.00 NULL NULL 75.4 73.2 93% 74 30.23 0.0
30 08:55 Calm 0.00 NULL NULL 73.6 73.2 99% 30.24 0.0
30 08:35 Calm 0.00 NULL NULL 72 72 100% 30.24 0.0
30 08:15 Calm 0.00 NULL NULL 71.1 71.1 100% 30.24 0.0
30 07:55 Calm 0.00 NULL NULL 68.5 68.5 68.5 61.5 100% 30.24 0.0
30 07:35 Calm 0.00 NULL NULL 66.6 66.6 100% 30.23 0.0
30 07:15 Calm 0.00 NULL NULL 64.9 64.9 100% 30.23 0.0
30 06:55 Calm 0.00 NULL NULL 66.4 66.4 100% 30.22 0.0
30 06:35 Calm 0.00 NULL NULL 62.2 62.2 100% 30.21 0.0
30 06:15 Calm 0.00 Mostly Cloudy BKN003 63 63 100% 30.21 0.0
30 05:55 Calm 0.00 Overcast OVC003 64.4 64.4 100% 30.21 0.0
30 05:35 Calm 0.00 Overcast OVC003 62.6 62.6 100% 30.21 0.0
30 05:15 Calm 0.00 Overcast OVC003 62.4 62.4 100% 30.21 0.0
30 04:55 Calm 0.00 Overcast OVC003 63.7 63.7 100% 30.21 0.0
30 04:35 Calm 0.00 Mostly Cloudy BKN003 63.1 63.1 100% 30.21 0.0
30 04:15 Calm 0.00 NULL NULL 64 64 100% 30.22 0.0
30 03:55 Calm 0.00 NULL NULL 65.1 65.1 100% 30.22 0.0
30 03:35 Calm 0.00 NULL NULL 64.9 64.9 100% 30.22 0.0
30 03:15 Calm 0.00 NULL NULL 65.3 65.3 100% 30.22 0.0
30 02:55 Calm 0.00 Mostly Cloudy BKN003 BKN011 64.4 64.4 100% 30.22 0.0
30 02:35 Calm 0.00 NULL NULL 65.5 65.5 100% 30.23 0.0
30 02:15 Calm 0.00 NULL NULL 65.7 65.7 100% 30.23 0.0
30 01:55 Calm 0.00 NULL NULL 67.5 67.5 76.1 65.3 100% 30.23 0.0
30 01:35 Calm 0.00 NULL NULL 66.7 66.7 100% 30.24 0.0
30 01:15 Calm 0.00 NULL NULL 67.1 67.1 100% 30.24 0.0
30 00:55 Calm 0.00 NULL NULL 66.9 66.9 100% 30.24 0.0
30 00:35 Calm 0.00 NULL NULL 66.2 66.2 100% 30.24 0.0
30 00:15 Calm 0.00 NULL NULL 67.1 67.1 100% 30.23 0.0
29 23:55 Calm 0.00 NULL NULL 67.1 67.1 100% 30.23 0.0
29 23:35 Calm 0.00 NULL NULL 68 68 100% 30.22 0.0
29 23:15 Calm 0.00 NULL NULL 68 68 100% 30.22 0.0
29 22:55 Calm 0.00 NULL NULL 68.4 68.4 100% 30.21 0.0
29 22:35 Calm 0.00 NULL NULL 68.9 68.9 100% 30.21 0.0
29 22:15 Calm 0.00 NULL NULL 69.4 69.4 100% 30.21 0.0
29 21:55 Calm 0.00 NULL NULL 70 70 100% 30.21 0.0
29 21:35 Calm 0.00 NULL NULL 71.2 70.7 98% 30.21 0.0
29 21:15 Calm 0.00 NULL NULL 72 70 94% 30.21 0.0
29 20:55 Calm 0.00 NULL NULL 73.4 69.1 86% 30.2 0.0
Date Time (edt) Wind (mph) Vis. (mi.) Weather Sky Cond. Air Dwpt Max. Min. Relative Humidity Wind Chill (°F) Heat Index (°F) altimeter (in) sea level (mb) 1 hr 3 hr 6 hr
6 hour
Temperature (ºF) Pressure Precipitation (in)